Overview Statistics Trail Chart Weather Telemetry Raw packets
 

This is the latest recevied weather packets stored in our database for station/object KF7SOJ. If no packets are shown the sender has not sent any weather packets the latest 10 day(s).

<< 57 58 59 60 61 62 63 >>
Time Temp. Humidity Pressure Rain* Wind** Luminosity Snow
1788222843 27.78° C 18% 930.8 hPa 0 mm - 110 W/m² -
1788222541 27.78° C 17% 930.7 hPa 0 mm - 127 W/m² -
1788222241 28.33° C 17% 930.7 hPa 0 mm - 145 W/m² -
1788221935 27.78° C 17% 930.8 hPa 0 mm - 161 W/m² -
1788221631 27.78° C 17% 930.9 hPa 0 mm - 180 W/m² -
1788221326 27.78° C 17% 931 hPa 0 mm - 199 W/m² -
1788221021 27.78° C 17% 931 hPa 0 mm - 220 W/m² -
1788220719 27.78° C 17% 931.1 hPa 0 mm - 238 W/m² -
1788220416 28.33° C 18% 931.1 hPa 0 mm - 256 W/m² -
1788220110 28.89° C 19% 931.1 hPa 0 mm - 276 W/m² -
1788219805 28.89° C 17% 931.3 hPa 0 mm - 295 W/m² -
1788219500 28.33° C 18% 931.3 hPa 0 mm - 315 W/m² -
1788219195 28.33° C 18% 931.3 hPa 0 mm - 332 W/m² -
1788218890 28.33° C 18% 931.1 hPa 0 mm - 350 W/m² -
1788218587 27.78° C 19% 931.3 hPa 0 mm - 364 W/m² -
1788218283 28.33° C 18% 931.1 hPa 0 mm - 380 W/m² -
1788217979 27.78° C 19% 931.3 hPa 0 mm - 396 W/m² -
1788217673 28.33° C 19% 931.3 hPa 0 mm - 415 W/m² -
1788217369 28.33° C 18% 931.3 hPa 0 mm - 434 W/m² -
1788217067 28.89° C 19% 931.3 hPa 0 mm - 451 W/m² -
1788216763 28.33° C 18% 931.3 hPa 0 mm - 468 W/m² -
1788216458 27.78° C 20% 931.5 hPa 0 mm - 485 W/m² -
1788216153 27.22° C 19% 931.6 hPa 0 mm - 501 W/m² -
1788215848 27.78° C 19% 931.5 hPa 0 mm - 515 W/m² -
1788215545 27.22° C 20% 931.5 hPa 0 mm - 528 W/m² -

* Rain latest hour (hover to see other rain measurements)
** Current wind speed in m/s (hover to see current wind gust speed)